TimeGMT,TemperatureF,Dew PointF,Humidity,Sea Level PressureIn,VisibilityMPH,Wind Direction,Wind SpeedMPH,Gust SpeedMPH,PrecipitationIn,Events,Conditions,WindDirDegrees,DateUTC
12:20 AM,33.8,32.0,93,29.44,-9999.0,SSE,2.3,-,N/A,,Clear,150,2012-11-04 00:20:00
12:50 AM,32.0,32.0,100,29.44,-9999.0,South,2.3,-,N/A,,Clear,180,2012-11-04 00:50:00
1:20 AM,30.2,30.2,100,29.44,-9999.0,SSE,3.5,-,N/A,,Clear,150,2012-11-04 01:20:00
1:50 AM,32.0,32.0,100,29.42,-9999.0,SE,5.8,-,N/A,,Clear,140,2012-11-04 01:50:00
2:20 AM,30.2,30.2,100,29.42,-9999.0,Calm,Calm,-,N/A,,Clear,0,2012-11-04 02:20:00
2:50 AM,30.2,30.2,100,29.42,-9999.0,SE,3.5,-,N/A,,Clear,140,2012-11-04 02:50:00
3:20 AM,30.2,30.2,100,29.39,-9999.0,SSE,3.5,-,N/A,,Clear,160,2012-11-04 03:20:00
3:50 AM,30.2,30.2,100,29.39,6.2,SSE,2.3,-,N/A,,Unknown,160,2012-11-04 03:50:00
4:20 AM,32.0,32.0,100,29.39,6.2,ESE,2.3,-,N/A,,Unknown,120,2012-11-04 04:20:00
4:50 AM,33.8,32.0,93,29.36,6.2,SE,3.5,-,N/A,,Unknown,140,2012-11-04 04:50:00
5:20 AM,33.8,32.0,93,29.36,-9999.0,SE,5.8,-,N/A,,Clear,140,2012-11-04 05:20:00
5:50 AM,33.8,33.8,100,29.36,-9999.0,SSE,5.8,-,N/A,,Clear,150,2012-11-04 05:50:00
6:20 AM,35.6,33.8,93,29.33,-9999.0,SE,5.8,-,N/A,,Clear,140,2012-11-04 06:20:00
6:50 AM,35.6,33.8,93,29.33,-9999.0,ESE,3.5,-,N/A,,Clear,120,2012-11-04 06:50:00
7:20 AM,37.4,33.8,87,29.30,-9999.0,North,3.5,-,N/A,,Clear,360,2012-11-04 07:20:00
7:50 AM,37.4,33.8,87,29.30,-9999.0,Variable,2.3,-,N/A,,Clear,0,2012-11-04 07:50:00
8:20 AM,37.4,35.6,93,29.30,-9999.0,Variable,2.3,-,N/A,,Clear,0,2012-11-04 08:20:00
8:50 AM,39.2,35.6,87,29.30,6.2,Variable,2.3,-,N/A,,Scattered Clouds,0,2012-11-04 08:50:00
9:20 AM,39.2,35.6,87,29.30,6.2,North,3.5,-,N/A,,Scattered Clouds,10,2012-11-04 09:20:00
9:50 AM,39.2,35.6,87,29.27,6.2,North,5.8,-,N/A,,Light Drizzle,350,2012-11-04 09:50:00
10:20 AM,39.2,37.4,93,29.27,6.2,Variable,3.5,-,N/A,,Light Drizzle,0,2012-11-04 10:20:00
10:50 AM,39.2,37.4,93,29.30,4.3,North,5.8,-,N/A,Rain,Light Rain,350,2012-11-04 10:50:00
11:20 AM,39.2,37.4,93,29.30,3.7,North,6.9,-,N/A,Rain,Light Rain,350,2012-11-04 11:20:00
11:50 AM,39.2,37.4,93,29.27,3.7,NNW,6.9,-,N/A,Rain,Light Rain,330,2012-11-04 11:50:00
12:20 PM,39.2,39.2,100,29.30,5.0,NNW,6.9,-,N/A,Rain,Light Rain,330,2012-11-04 12:20:00
12:50 PM,41.0,39.2,93,29.30,6.2,NW,6.9,-,N/A,,Light Drizzle,320,2012-11-04 12:50:00
1:20 PM,41.0,39.2,93,29.30,6.2,NNW,6.9,-,N/A,,Mostly Cloudy,340,2012-11-04 13:20:00
1:50 PM,42.8,39.2,87,29.30,6.2,North,8.1,-,N/A,,Mostly Cloudy,350,2012-11-04 13:50:00
2:20 PM,41.0,39.2,93,29.33,6.2,North,8.1,24.2,N/A,,Mostly Cloudy,360,2012-11-04 14:20:00
2:50 PM,41.0,39.2,93,29.33,5.6,North,8.1,-,N/A,,Mostly Cloudy,10,2012-11-04 14:50:00
3:20 PM,41.0,37.4,87,29.33,5.6,North,4.6,-,N/A,,Mostly Cloudy,360,2012-11-04 15:20:00
3:50 PM,41.0,39.2,93,29.36,5.6,Variable,3.5,-,N/A,,Mostly Cloudy,0,2012-11-04 15:50:00
4:20 PM,39.2,37.4,93,29.36,5.0,NE,2.3,-,N/A,,Scattered Clouds,40,2012-11-04 16:20:00
4:50 PM,39.2,37.4,93,29.36,5.0,Calm,Calm,-,N/A,,Scattered Clouds,0,2012-11-04 16:50:00
5:20 PM,37.4,35.6,93,29.36,5.0,Variable,3.5,-,N/A,,Scattered Clouds,0,2012-11-04 17:20:00
5:50 PM,37.4,35.6,93,29.39,5.0,Calm,Calm,-,N/A,,Partly Cloudy,0,2012-11-04 17:50:00
6:20 PM,37.4,37.4,100,29.39,3.7,Calm,Calm,-,N/A,,Scattered Clouds,0,2012-11-04 18:20:00
6:50 PM,37.4,37.4,100,29.39,3.7,Calm,Calm,-,N/A,,Mostly Cloudy,0,2012-11-04 18:50:00
7:20 PM,37.4,37.4,100,29.39,3.1,Variable,2.3,-,N/A,,Mostly Cloudy,0,2012-11-04 19:20:00
7:50 PM,35.6,35.6,100,29.39,3.1,Calm,Calm,-,N/A,,Mostly Cloudy,0,2012-11-04 19:50:00
8:20 PM,35.6,35.6,100,29.42,2.2,Calm,Calm,-,N/A,Fog,Scattered Clouds,0,2012-11-04 20:20:00
8:50 PM,35.6,35.6,100,29.42,2.2,Variable,2.3,-,N/A,Fog,Mostly Cloudy,0,2012-11-04 20:50:00
9:20 PM,35.6,35.6,100,29.42,1.2,North,2.3,-,N/A,Fog,Overcast,350,2012-11-04 21:20:00
9:50 PM,37.4,37.4,100,29.44,1.2,Calm,Calm,-,N/A,,Mostly Cloudy,0,2012-11-04 21:50:00
10:20 PM,35.6,35.6,100,29.44,1.2,Calm,Calm,-,N/A,,Mostly Cloudy,0,2012-11-04 22:20:00
10:50 PM,35.6,33.8,93,29.44,0.9,NNW,3.5,-,N/A,,Mostly Cloudy,330,2012-11-04 22:50:00
11:20 PM,35.6,35.6,100,29.47,0.9,North,5.8,-,N/A,,Mostly Cloudy,360,2012-11-04 23:20:00
11:50 PM,35.6,35.6,100,29.47,0.9,North,5.8,-,N/A,,Mostly Cloudy,360,2012-11-04 23:50:00